Preview of NWS' New Version of Forecast
This preview is not operational and should not be used for support decisions.

Regional Weather Roundup (RWR)

Issued by National Weather Service (NWS)

                            
000
ASUS43 KLSX 200057
RWRMO 

WEATHER SUMMARY FOR MISSOURI
NATIONAL WEATHER SERVICE SPRINGFIELD MO
800 PM CDT WED JUN 19 2019

NOTE: "FAIR" INDICATES FEW OR NO CLOUDS BELOW 12,000 FEET WITH NO
       SIGNIFICANT WEATHER AND/OR OBSTRUCTIONS TO VISIBILITY.
       CURRENT SKY AND/OR WEATHER CONDITIONS ARE NOT AVAILABLE FOR
       CHILLICOTHE AND FARMINGTON.

MOZ001>031-035>038-043-044-053-054-200200-
...NORTHERN AND WESTERN MISSOURI...
  
CITY           SKY/WX    TMP DP  RH WIND       PRES   REMARKS
KANSAS CTY INT MOCLDY    73  64  73 N6        29.71S                  
ST JOSEPH      PTCLDY    73  63  70 N6        29.71S                  
CHILLICOTHE      N/A     66  65  96 CALM      29.72R                  
     
$$
MOZ066>068-077>081-088>096-101>105-200200-
...SOUTHWEST MISSOURI...
  
CITY           SKY/WX    TMP DP  RH WIND       PRES   REMARKS
SPRINGFIELD    PTCLDY    76  65  68 W9        29.70S                  
JOPLIN         PTCLDY    76  66  71 NW9       29.72R                  
BRANSON        PTCLDY    77  66  69 CALM      29.73R                  
               
$$
MOZ032>034-039>042-045>050-055>058-069>072-200200-
...CENTRAL MISSOURI...  
  
CITY           SKY/WX    TMP DP  RH WIND       PRES   REMARKS
COLUMBIA       NOT AVBL                                               
ROLLA          MOCLDY    73  66  78 W7        29.67S                  
SEDALIA        CLEAR     70  64  81 NW9       29.69R                  
WARRENSBURG    CLEAR     72  63  73 NW13G18   29.70R                  
               
$$
MOZ051-052-059>065-200200-
...EAST CENTRAL MISSOURI...
  
CITY           SKY/WX    TMP DP  RH WIND       PRES   REMARKS
ST LOUIS INTL  MOCLDY    77  64  64 W9        29.62F                  
                   
$$
MOZ072>076-082>087-097>100-106>115-200200-
...SOUTH CENTRAL AND SOUTHEAST MISSOURI...
  
CITY           SKY/WX    TMP DP  RH WIND       PRES   REMARKS
CAPE GIRARDEAU FAIR      76  70  82 SE6       29.63F                  
POPLAR BLUFF   FOG       70  69  97 MISG      29.66R THUNDER VSB 1/4  
WEST PLAINS    MOCLDY    77  69  76 CALM      29.71R                  
                                       
$$